Theta_e
318 313 309 311 298 293 290 294 297 300 300 302 307 315 308 305 313 306 316 307 309 340 342 342 346 349 350 349 349 348 346 344 343 343 344 340 338 336 338 337 336 337 343 343 342 340 337 339 339
316 312 312 304 293 288 290 296 298 301 303 304 312 313 305 303 303 306 300 304 309 341 342 341 342 347 349 348 348 347 346 345 344 344 343 342 340 338 336 337 335 335 335 338 339 338 336 336 338
304 311 305 298 291 288 292 296 298 301 304 305 307 306 295 293 300 296 300 303 306 341 343 342 342 345 346 347 346 346 345 345 345 345 344 341 340 338 337 336 336 336 335 336 336 336 335 334 337
303 309 304 296 292 293 294 296 300 300 304 304 305 292 294 295 295 297 299 300 303 315 343 342 343 346 346 346 347 346 345 345 345 345 344 343 341 340 340 338 336 335 335 336 337 336 333 333 335
308 304 296 294 292 294 294 297 300 299 299 299 302 299 293 294 295 296 296 298 300 308 325 337 341 344 346 346 346 346 346 345 345 344 344 344 344 343 341 337 337 335 334 335 335 337 334 332 334
303 301 293 291 292 295 294 295 297 296 297 297 294 297 290 293 293 295 295 295 297 300 303 307 316 337 339 343 344 345 345 345 345 344 343 344 343 343 342 338 337 335 334 335 336 337 335 332 332
301 298 294 294 293 293 292 293 291 292 295 291 291 290 290 291 293 294 294 294 295 297 300 301 307 313 323 336 338 340 342 342 342 343 342 341 340 340 340 339 338 337 336 335 334 336 335 333 331
303 299 294 288 292 288 289 291 288 287 291 291 289 284 283 290 293 295 294 295 297 300 301 301 307 311 317 323 332 333 335 337 338 338 337 335 335 336 336 334 336 338 337 337 334 334 334 333 332
304 293 289 287 289 287 286 285 287 287 286 286 288 286 288 292 294 293 293 295 297 300 300 304 309 313 314 317 322 329 331 331 332 333 331 331 335 335 334 332 332 337 335 336 334 332 332 331 330
296 289 285 285 284 283 285 283 283 283 284 283 283 286 290 291 290 291 291 292 293 295 297 301 305 311 311 314 312 314 320 328 334 336 336 336 335 334 333 329 327 331 332 334 334 333 329 325 323
287 286 285 284 286 285 284 283 285 283 281 282 282 284 288 289 290 290 291 291 291 293 295 297 301 306 307 309 310 310 313 316 318 322 332 335 335 333 331 331 329 329 324 328 329 327 324 324 320
284 285 287 287 286 285 283 285 283 283 284 287 286 286 288 288 289 289 290 291 292 294 294 295 297 300 301 306 305 307 308 310 311 315 324 329 333 333 332 330 328 327 326 325 323 322 321 321 320
283 283 284 285 286 284 286 283 283 284 285 287 287 289 287 287 288 289 290 291 292 292 294 295 295 296 299 302 303 303 305 307 308 313 316 315 313 322 332 331 328 326 326 324 323 321 321 320 319
283 284 283 284 284 285 284 282 284 285 286 286 287 286 288 288 288 288 289 290 291 293 293 294 295 296 297 299 300 301 302 304 307 308 309 312 312 313 312 324 329 326 325 324 323 322 321 320 320
285 282 283 282 284 283 283 281 282 284 285 286 286 284 287 289 290 288 290 290 291 292 293 293 294 296 295 297 299 301 302 303 304 307 307 309 311 311 311 311 311 317 327 324 323 322 321 320 320
280 280 277 282 284 284 281 279 285 286 284 284 285 283 285 287 288 288 290 291 291 291 291 292 295 293 294 295 298 300 301 301 302 305 305 308 309 309 309 309 310 312 311 321 322 322 320 319 318
278 275 276 279 283 282 281 279 284 284 284 283 283 283 284 286 287 288 288 289 291 291 291 291 291 292 293 294 297 299 300 300 301 302 303 306 308 307 308 308 309 310 310 311 320 322 321 318 317
275 274 277 276 280 280 279 280 283 285 284 283 283 283 283 285 287 288 289 291 291 290 290 291 292 292 293 294 294 296 298 298 299 299 301 303 304 306 305 306 305 308 309 310 310 310 321 320 317
277 275 274 278 280 279 277 279 282 283 282 282 281 282 283 285 287 288 289 289 290 290 290 290 290 292 292 292 292 292 292 294 296 298 299 300 303 304 304 303 305 306 306 306 309 309 309 308 319
277 276 275 278 280 279 277 278 282 282 282 282 283 282 283 284 285 287 288 288 288 288 289 289 291 292 293 293 294 294 294 295 296 299 299 300 300 301 301 300 301 304 304 306 308 308 307 307 318
276 276 274 275 278 278 276 276 279 281 281 282 283 283 284 285 285 285 286 287 287 287 288 289 290 292 293 293 294 294 294 294 293 294 294 296 298 298 299 300 300 301 303 305 305 307 307 305 308
276 278 278 277 275 273 276 273 277 279 281 282 283 283 284 284 285 286 286 286 286 287 288 289 290 291 293 294 293 291 291 290 292 293 294 294 297 297 298 299 299 300 301 301 303 306 307 307 305
278 279 278 277 274 272 272 271 277 278 280 281 282 283 283 284 284 285 286 286 287 288 287 288 289 290 292 292 292 291 291 292 293 292 292 293 294 295 297 298 298 298 299 301 303 304 306 307 305
281 278 278 275 273 269 273 272 276 278 280 280 281 283 284 284 284 285 286 287 287 287 287 288 288 289 291 291 291 291 290 291 291 291 291 292 293 293 294 296 297 298 299 300 301 303 304 306 306
279 276 271 270 269 271 273 272 278 281 282 282 283 283 283 283 283 284 285 285 286 286 287 287 288 288 290 290 290 291 291 291 290 291 291 291 291 291 292 294 295 295 297 299 300 300 302 304 305
275 275 272 267 269 272 275 272 279 282 283 283 283 282 283 284 284 284 285 285 285 286 285 286 287 288 289 290 291 291 291 290 289 289 290 290 291 291 293 293 294 295 297 299 300 300 300 300 303
276 272 275 270 267 268 273 276 281 283 282 282 283 283 283 284 284 285 285 285 285 284 285 285 286 289 289 290 290 289 289 288 288 289 289 291 292 294 294 294 295 297 298 299 298 298 298 300 302
276 279 272 270 265 264 272 274 278 281 280 282 281 282 283 283 284 285 284 284 284 284 285 285 287 287 289 289 288 288 289 289 290 289 289 291 292 294 293 293 294 294 294 295 296 297 299 299 302
274 272 272 271 272 268 267 273 280 281 282 282 282 282 283 283 283 284 284 284 284 284 284 285 286 287 287 288 288 288 288 289 290 290 290 290 290 291 291 291 291 292 293 294 295 295 296 296 299
276 275 275 270 268 270 272 272 282 282 282 281 282 283 282 283 283 283 283 283 283 283 284 285 286 286 287 287 287 286 287 289 289 289 290 290 290 291 291 291 291 292 292 293 294 294 296 297 299
Wind_Speed
15 12 1 5 5 6 4 3 5 7 5 4 2 14 14 9 5 6 10 16 23 5 6 6 8 9 8 8 6 10 11 10 10 10 9 8 6 6 6 4 0 1 6 10 11 10 6 6 8
10 6 4 3 6 5 2 2 5 4 6 5 10 5 9 4 8 4 8 21 22 2 6 6 9 7 5 7 8 10 11 11 11 11 10 10 10 9 8 7 4 4 3 6 8 8 7 6 8
6 2 4 5 4 4 4 2 4 2 6 7 6 8 5 6 5 6 10 17 17 4 5 5 8 9 8 5 8 9 10 11 12 12 12 11 11 11 10 9 8 8 7 7 7 8 6 6 8
4 5 5 6 5 4 3 6 5 4 8 11 3 8 6 5 5 7 12 12 13 15 5 5 11 13 13 13 12 10 12 13 13 14 14 13 13 12 10 11 11 10 10 11 10 10 9 7 10
3 2 4 5 3 4 2 5 6 6 3 7 6 4 5 4 6 8 11 11 12 13 15 10 9 12 12 12 13 13 12 13 14 14 15 14 14 13 12 12 13 12 11 12 13 12 13 8 9
3 3 5 3 4 2 3 8 3 5 5 5 7 4 3 1 9 11 9 9 8 9 10 10 16 11 11 12 13 13 14 14 14 14 15 15 16 15 15 16 15 15 15 14 13 13 13 12 9
5 4 6 4 7 2 4 7 5 4 5 6 6 4 3 7 9 8 8 8 8 8 11 11 11 14 18 11 11 12 12 13 13 14 14 16 16 16 16 16 16 16 15 16 15 12 13 14 12
4 4 4 3 4 2 6 4 4 5 2 3 3 4 4 6 8 8 8 9 8 9 9 10 10 11 12 13 13 10 12 13 13 13 13 14 15 14 14 13 14 18 18 17 16 14 14 14 13
1 5 2 3 1 4 3 2 6 4 4 4 3 3 3 8 9 8 6 8 9 11 10 10 9 10 10 12 14 16 12 11 16 12 13 12 9 10 12 12 13 18 18 19 17 17 16 14 13
6 5 3 2 1 1 4 1 4 4 5 3 1 3 4 2 5 8 7 8 8 9 10 9 9 8 9 9 10 10 12 12 10 9 11 8 9 9 11 12 15 16 16 18 17 19 17 16 6
4 4 5 1 0 2 2 3 4 3 1 4 4 4 1 3 7 6 5 4 4 5 6 8 7 6 7 7 6 5 5 6 8 14 12 12 9 8 8 7 8 10 13 8 11 10 9 11 7
7 5 5 1 1 1 2 4 3 2 5 4 5 3 1 5 5 4 5 5 6 6 6 7 8 6 7 4 4 4 5 6 7 8 13 10 8 10 10 8 9 9 8 11 9 7 8 9 10
5 3 3 3 4 2 2 3 4 5 6 6 3 3 1 2 4 4 4 4 4 5 6 7 7 6 5 5 4 4 4 4 6 8 11 8 11 11 10 12 10 10 10 10 11 9 8 10 10
3 5 5 2 2 1 2 3 2 5 7 4 2 5 6 5 5 4 5 5 5 5 6 6 7 6 6 5 5 4 4 5 4 5 7 11 8 9 9 10 10 9 10 11 12 12 11 10 10
5 5 1 2 4 2 1 3 9 5 6 6 5 4 7 7 6 7 7 7 6 5 6 7 7 6 7 7 6 4 4 5 4 4 7 9 10 8 8 7 7 11 11 15 12 12 11 11 10
3 5 2 1 7 1 2 9 4 8 7 8 7 6 6 7 6 6 7 6 7 6 7 7 5 7 7 6 5 4 5 4 5 4 5 7 8 10 7 5 7 8 9 11 12 12 12 12 12
7 3 1 4 5 4 5 9 6 3 6 8 7 7 6 7 6 6 6 6 6 6 7 8 7 7 7 7 5 6 7 5 5 4 5 6 7 8 8 6 8 8 7 8 9 13 14 13 11
3 1 3 4 5 3 6 20 14 10 9 10 10 9 8 7 9 7 7 6 6 6 6 7 7 7 7 5 5 4 4 5 4 5 5 7 7 7 7 7 8 7 6 7 6 12 7 13 14
4 2 2 4 3 6 4 14 22 11 10 11 9 9 9 9 7 6 6 6 7 7 6 8 8 9 4 3 4 4 4 5 4 4 7 8 7 7 7 7 9 9 8 8 8 8 12 10 13
2 1 4 6 2 4 7 20 14 7 8 10 11 9 10 6 6 8 8 7 7 7 8 8 8 8 6 4 4 4 5 5 5 6 7 8 9 8 8 8 9 10 9 11 8 8 5 5 11
3 1 2 3 10 2 8 9 6 2 2 3 6 7 7 10 9 8 8 8 8 8 8 8 9 8 7 7 4 4 5 4 5 6 6 6 7 8 10 10 9 10 10 8 10 9 10 7 7
1 2 2 2 6 4 5 7 7 4 6 4 7 9 9 9 6 6 7 7 8 9 7 8 8 8 8 7 6 7 7 11 9 9 8 7 8 9 11 11 10 11 9 12 11 10 10 9 11
2 1 1 2 2 3 1 2 11 4 6 7 10 10 9 8 7 8 8 8 9 7 7 8 8 8 8 7 7 6 12 11 10 8 9 9 8 9 10 11 12 11 10 12 13 11 12 10 9
2 2 3 4 2 3 2 3 9 5 6 3 5 9 9 7 7 7 8 7 6 7 7 7 8 7 7 7 7 10 13 12 11 11 10 9 9 8 10 11 10 11 12 13 12 13 15 12 10
3 3 4 7 5 6 2 1 15 5 7 7 6 7 7 6 6 7 8 7 7 8 8 7 7 8 8 8 8 11 11 12 12 13 12 13 10 10 11 12 12 11 13 14 13 14 15 14 13
2 2 6 5 3 5 4 9 10 7 7 7 7 5 6 7 5 7 8 7 8 7 8 7 8 10 9 10 12 8 9 6 10 13 12 12 11 11 13 13 14 15 15 14 14 12 12 15 14
2 2 2 6 2 3 5 10 12 6 10 6 7 7 8 7 7 8 8 7 7 7 7 7 8 11 12 12 11 7 8 11 12 15 14 12 13 13 15 15 15 13 14 15 15 12 17 15 15
1 3 4 4 1 6 6 7 11 6 4 8 7 9 8 5 8 8 7 7 5 6 5 7 8 11 13 12 7 9 11 14 15 12 14 15 15 14 15 17 17 16 16 16 16 14 15 17 13
1 0 4 3 4 5 4 9 9 8 8 10 10 9 8 8 8 8 7 7 5 5 6 7 8 12 12 10 11 11 12 13 13 12 12 13 14 16 18 20 19 19 18 17 16 17 19 18 18
2 3 5 6 6 4 1 15 5 8 7 6 8 8 6 7 8 8 7 6 6 6 6 7 10 10 11 11 13 13 13 13 14 14 15 15 15 15 18 19 20 19 19 18 18 18 16 17 19
Wind_Direction
327 309 263 39 57 64 29 21 293 358 13 9 22 87 106 44 16 91 305 341 336 245 173 186 192 185 191 193 190 183 183 189 190 192 191 183 187 190 176 173 89 39 167 141 135 121 135 136 134
321 311 41 79 84 70 288 292 36 33 292 55 70 37 47 68 15 44 360 335 331 244 168 181 199 191 203 218 203 195 196 201 204 208 201 197 197 202 201 195 192 196 210 181 121 139 143 171 158
300 249 73 89 99 118 166 290 290 261 18 29 108 55 69 338 345 357 312 327 340 343 203 206 188 189 189 228 247 217 222 220 220 214 210 205 200 198 200 201 212 209 219 207 162 161 156 197 192
358 3 29 74 81 15 35 311 312 333 10 28 90 70 77 72 12 311 304 335 356 347 270 214 205 203 199 195 204 232 235 230 235 227 216 215 210 212 212 201 206 216 223 223 181 177 160 207 204
36 52 58 85 86 113 352 315 4 42 79 5 7 127 109 33 324 319 340 349 0 4 4 349 255 238 214 212 207 213 219 238 240 245 233 224 216 215 209 206 204 206 216 222 223 187 165 199 213
26 90 68 118 147 177 50 343 331 25 9 358 40 92 124 149 1 334 337 350 348 356 354 356 357 303 284 247 227 218 224 225 230 238 245 236 229 218 214 210 207 212 210 223 216 195 179 183 211
120 89 165 140 157 83 344 312 40 346 35 2 310 73 285 3 343 332 338 345 349 356 5 359 357 3 357 302 273 256 235 238 237 235 235 237 241 227 218 215 210 211 211 209 217 208 193 184 204
103 91 114 35 183 171 326 354 331 40 45 134 34 30 334 303 330 346 351 357 4 5 10 9 9 12 2 351 322 270 275 262 244 239 234 232 229 230 220 216 217 210 208 208 213 210 206 203 200
53 65 71 17 82 173 321 348 338 303 72 50 53 121 249 302 341 7 8 4 4 7 5 1 3 12 11 7 358 345 291 263 277 259 246 240 239 224 219 219 220 217 215 213 207 216 212 203 199
61 82 142 233 175 243 321 23 313 27 11 15 51 305 291 359 22 21 11 359 1 359 357 5 355 4 7 8 3 357 353 347 321 277 257 245 237 226 219 209 211 224 217 222 212 212 212 211 189
26 117 155 10 8 9 328 330 302 133 319 226 267 286 355 10 24 26 360 343 327 315 350 348 358 354 4 3 355 355 351 341 337 354 315 250 238 225 219 226 218 212 223 226 224 215 220 206 191
92 26 120 146 6 168 308 292 321 281 213 220 233 234 44 4 350 352 349 336 336 342 336 340 347 355 354 349 353 335 346 344 340 335 317 321 241 225 224 220 216 209 210 210 220 216 209 206 196
87 153 87 121 56 106 296 288 264 262 219 232 281 211 250 307 291 275 289 292 307 323 316 316 327 338 339 348 335 334 331 330 336 333 350 10 12 342 252 220 214 212 207 213 204 213 216 207 201
131 125 134 177 22 143 348 273 25 245 201 222 249 247 246 264 262 270 285 285 283 289 299 297 319 318 333 332 326 319 317 307 320 319 326 332 333 335 350 324 224 216 217 208 212 205 202 219 211
125 86 10 324 320 244 305 254 228 227 190 209 242 285 271 270 293 273 268 271 272 285 299 308 310 317 326 317 314 309 297 316 307 303 317 316 325 320 333 329 349 340 251 217 214 209 212 204 213
80 49 67 258 352 333 16 273 259 202 178 225 241 263 275 270 268 284 273 267 281 294 297 299 306 307 309 302 290 294 299 295 290 287 298 303 311 318 309 317 302 348 318 306 212 210 207 214 207
12 173 302 322 38 320 40 271 281 220 221 252 257 265 269 284 290 281 285 270 278 282 299 310 313 305 307 300 295 286 283 283 285 281 283 280 290 302 303 302 297 321 313 287 293 217 210 208 210
191 83 310 267 347 347 262 263 263 261 259 258 259 245 252 256 257 259 261 273 283 291 294 297 303 298 302 300 292 283 280 267 262 272 272 275 284 278 292 296 293 276 270 298 313 340 269 223 205
114 112 293 271 54 337 227 286 279 243 232 238 240 225 234 243 261 261 273 284 286 292 297 300 308 297 306 298 301 294 282 290 256 253 265 269 268 277 278 288 289 294 292 273 295 283 300 323 219
87 70 313 284 337 360 332 293 290 264 240 218 202 217 229 244 274 277 276 282 281 278 284 291 286 285 287 268 262 254 274 271 274 279 269 266 271 271 277 278 286 283 288 272 256 256 280 275 268
49 64 64 262 321 239 307 291 332 341 264 201 210 206 219 224 247 263 274 270 292 290 276 283 280 283 286 285 292 284 280 273 291 297 276 249 255 268 268 266 273 278 279 271 278 274 257 272 289
156 139 119 307 21 290 19 283 303 313 305 230 225 217 228 237 252 256 272 292 292 281 286 282 283 294 292 299 299 299 303 304 300 297 288 278 263 264 270 271 267 271 277 273 269 264 247 239 257
157 133 162 131 91 11 323 50 271 338 279 244 228 231 240 244 236 256 274 278 283 297 297 293 300 296 300 307 307 303 302 297 302 293 285 286 284 275 272 268 272 268 269 272 268 270 258 251 237
23 95 67 54 73 22 267 131 278 213 208 260 231 231 233 229 238 263 272 280 300 309 312 314 310 304 307 301 292 295 296 298 302 300 296 296 296 296 286 276 271 271 271 270 277 272 264 258 253
56 62 332 355 8 226 352 274 246 257 233 210 222 233 215 226 254 278 292 302 309 316 314 315 321 301 294 287 286 293 290 299 299 306 301 299 297 297 293 289 282 277 272 270 265 268 268 268 253
50 146 151 232 262 283 329 241 254 214 260 239 205 205 208 231 277 289 286 297 302 307 307 318 305 300 296 297 297 288 294 305 304 300 300 295 290 286 286 283 278 278 273 267 268 264 267 265 261
152 84 185 101 64 30 239 286 292 260 247 206 221 196 223 250 287 292 296 296 290 311 315 315 310 305 308 298 301 297 300 301 302 304 299 293 295 293 289 285 284 288 294 285 270 263 263 259 263
282 160 70 6 319 286 279 273 246 282 255 232 226 224 234 259 292 297 284 287 302 312 317 316 301 296 295 290 286 296 295 304 303 298 293 294 292 297 302 293 286 286 283 278 276 274 271 265 258
138 200 53 114 154 196 289 252 216 230 228 230 234 233 234 257 269 280 281 288 300 304 314 298 299 297 297 294 297 297 304 296 290 289 288 290 292 291 291 288 285 277 272 268 265 263 266 263 263
294 211 162 128 245 242 213 268 262 233 251 230 240 237 244 252 266 276 273 289 294 304 299 295 303 296 304 307 308 305 300 300 295 293 293 293 290 288 288 286 281 275 271 269 264 261 257 256 260